Location: Earls Croome
(52.0667°N, 2.2000°W)
Time: 08:50:57
(UTC+00:00)

Cosmos 2237 Rocket - Pass Details

Date: 17 November 2019
Orbit: 834 x 850 km, 71.0° (Epoch: 10 December)

Event Time Altitude Azimuth Distance (km) Brightness Sun altitude
Exits shadow 04:50:51 - 345° (NNW) 2,537 4.5 -24.4°
Reaches altitude 10° 04:51:04 10° 347° (NNW) 2,488 4.5 -24.4°
Maximum altitude 04:54:32 16° 25° (NNE) 2,079 4.5 -23.8°
Drops below altitude 10° 04:58:00 10° 62° (ENE) 2,479 5.5 -23.3°
Sets 05:01:28 0° 84° (E) 3,408 6.8 -22.8°
